SENTINEL-1C (62261 NORAD) Tracking and Keplerian Element Data

This shows tracking and keplerian element data for the satellite.

Feedback or suggestion? Click here.




ElementValue
Catalog62261
NameSENTINEL-1C
Epoch Orbit878
Epoch Day35.16674032
Epoch Year2025
RAAN44.5815
Inclination98.1824
Eccentricity0.0001299
Argument of Perigee91.28
Mean Anonmoly268.8549
Mean Motion14.59198862
Decay Rate4.61E-06
L11 62261U 24235A 25035.16674032 .00000461 00000+0 10741-3 0 9993
L22 62261 98.1824 44.5815 0001299 91.2800 268.8549 14.59198862 8787



Live tracking and technical data element details for SENTINEL-1C (NORAD 62261). SENTINEL-1C can be tracked NOW for your location showing map with azimuth and elevation plus other details from your city location.







IsCatalogInMostPopularTable: catalog: 62261, numindb: 10
Update: records affected: 1



GetName: 62261 SENTINEL-1C

Hit Count: updated at: Sun, 18 May 2025 23:16:27 GMT